Showing default

CARTOSAT 3, 44804

Orbit data source: Space-Track

CARTOSAT 3, 44804 is a payload satellite owned by ISRO (IN) in SSO that was launched on Wed, 27 Nov 2019 UTC via a PSLV-XL launch vehicle from the Sirharikota (SRI). Payload-class satellites include a variety of spacecraft equipped with specific instruments for various scientific and technological missions. These include communications satellites like Starlink; space stations such as the ISS; scientific satellites like the Hubble; Earth observation satellites from companies like Planet Labs, Umbra, and HawkEye 360; GPS; miniature CubeSats for education and research; and military/defense satellites.

Loading next visibility...
Identifier
44804, 2019-081A
Orbit
SSO
Country
Flag of ININ / IND
Related business
Manufacturer
ISRO
Mission
Operational Defense Imaging
Bus & Motor
IRS-2, AOCS
Mass
1,625 kg wet, ~1,500 kg dry
Launch date (UTC)
2019-11-27 (6 years ago)
Launch vehicle
PSLV-XL
Launch site
Sirharikota (SRI)
Object type
Payload
Rocket body
Debris
Shape & HBR
Hex Cyl + 2 Pan, Unknown HBR
Radar Cross Section
9.780 m², Large (>1 m²)

Expand to show TLE details & history
Last TLE update: 6 hours ago

TLE from 6 hours ago
0 CARTOSAT 3
1 44804U 19081A   25352.95355757  .00003442  00000-0  16642-3 0  9997
2 44804  97.4585  52.4582 0014031  63.9396 296.3281 15.19202670336108
Epoch: 2025-12-18T22:53Z
TLE epoch observation values (Epoch: 2025-12-18T22:53:07.374Z)
Latitude
-0.00001°
Longitude
-18.62419°
Altitude
507.061 km
Speed
7.613 km/s
True Right ascension
03h 29m 49s
True Declination
0° 00' 00"
Sunlit
Object was in full shadow at epoch
Visualization orbit readout
Latitude
Unknown
Longitude
Unknown
Altitude
Unknown
Speed
Unknown
Apparent Right ascension
Unknown
Apparent Declination
Unknown
Sunlit
N/A
Visualization observer readout
Local Sidereal Time
03:55:56
Azimuth
Unknown
Elevation
Unknown
Doppler factor
Unknown
Orbital elements
Apogee altitude
514.876 km
Perigee altitude
495.56 km
Semi-major axis
6,883.355 km
Eccentricity
0.0014
Inclination
97.4585°
RAAN
52.4582°
Arg. of periapsis
63.9396°
True anomaly
296.18388°
Mean anomaly
296.3281°
Eccentric anomaly
296.256°
Mean motion
3.80052 °/min
Orbital period
94.72 mins
BSTAR
0.00016642
Loading maneuver chart data...
Computing Atmospheric mass density...
Loading historical data...
Loading historical data...
Loading historical data...
Loading historical data...
Loading historical data...
Loading historical data...
Loading historical data...

Documentation

Showing up to 5 results
|